Snel-info
Kleurcode:
Groen
Er mag gevlogen worden.
Laatste update: 21/02/2017
Kleurcode informatie

Grasmaaien:

Geen maaibeurten gepland.

Volgende vliegdagen:

(geen extra vliegdagen gevonden)
Alle extra vliegdagen

Weersituatie op PMF:

5_Jets_over_Pampa_2014_071_DirkVL.jpg

Huidige weersituatie

Huidig weerbeeld in Kleine Brogel, Belgium
Huidige wind in Kleine Brogel, Belgium

Dit is het bericht voor Kleine Brogel, Belgium en werd 19 minuten geleden gemaakt.
De wind waaide met een snelheid van 0.5 meter per seconde (1.9 km/h) uit verschillende richtingen..
De temperatuur was 2 °C. De atmosferische druk was 1023 hPa. De relative luchtvochtigheid was 93.1%. De lucht was helder. Het algemene zicht was meer dan 10 kilometer.

De onbewerkte METAR gegevens waarop dit bericht is gebaseerd zijn:
EBBL 270225Z VRB01KT 9999 SKC 02/01 Q1023 BLU


Opmerking:
De wind blijkt op PMF meestal iets krachtiger te waaien dan op Kleine Brogel. De windrichting klopt dan weer wel.




KMI

De weersvoorspellingen van het KMI vind je via deze link.


Buienradar

Op www.buienradar.nl kun je zelf zien waar het nu en de komende uren regent.